Meath Environmental Platform

Observations for Trim Market St

Time AQI Temp °C Hum % Pres Pa CO μg/m³ H₂S μg/m³ NO μg/m³ NO₂ μg/m³ O₃ μg/m³ SO₂ μg/m³ PM1 μg/m³ PM2.5 μg/m³ PM10 μg/m³
Tuesday 25 August 2026
02:14 2 16.1 75 42,613 0.33 0 1.53 17.01 43.95 0 0.71 2.84 5.13
02:13 2 16.1 75 42,395 0.32 0 1.44 19.04 42.45 0 1.43 3.31 5.73
02:12 2 16.1 75 42,147 0.31 0 1.52 14.12 44.2 0 2.14 3.79 6.93
02:11 2 16 75 41,874 0.33 0 1.47 16.27 44.68 0 2.14 3.31 5.73
02:10 2 16 75 41,648 0.33 0 1.51 18.22 41.89 0 2.14 3.31 5.73
02:09 2 16 75 41,433 0.33 0 1.47 17.56 43.78 0 1.43 3.31 5.74
02:08 2 16 75 41,254 0.32 0 1.56 16.28 42.1 0 1.43 3.31 5.73
02:07 2 16 75 41,087 0.32 0 1.51 19.6 41.85 0 1.43 3.31 6.93
02:06 2 16 75 40,950 0.32 0 1.46 16.34 43.02 0 2.14 2.83 6.33
02:05 2 16 75 40,750 0.32 0 1.44 18.28 43.11 0 0.71 2.83 5.74
02:04 2 16 75 40,592 0.33 0 1.44 20.55 43.86 0 2.14 3.31 5.73
02:03 2 16 75 40,420 0.31 0 1.34 14.46 52.04 0 3.56 3.79 6.33
02:00 2 15.9 75 40,274 0.31 0 1.63 20.38 42.26 0 2.14 3.79 8.73
01:58 3 15.9 75 40,328 0.3 0 1.5 18.27 44.41 0 2.14 3.32 7.53
01:57 3 15.9 75 40,351 0.31 0 1.45 19.39 42.71 0 3.56 5.23 8.13
01:56 3 15.9 75 40,395 0.31 0 1.33 18.58 45.47 0 2.14 4.28 7.53
01:46 3 15.8 74 41,935 0.31 0 1.14 18.21 46.89 0 2.85 5.26 8.13
01:45 3 15.8 74 42,263 0.31 0 1.24 20.08 42.95 0 4.28 6.22 9.34
01:44 3 15.9 74 42,608 0.31 0 1.31 17.42 43.89 0 4.28 5.74 9.94
01:42 3 15.9 74 43,063 0.31 0 1.55 16.55 45.48 0 4.28 5.74 8.74